METEOR 2-7 DEB, 28389

Orbit data source: Space-Track

METEOR 2-7 DEB, 28389 is space debris in LEO originally from a launch on Thu, 14 May 1981 UTC launched from the Plesetsk Missile And Space Complex (PKMTR). Debris objects in space refer to the collection of defunct objects orbiting the Earth. Examples of debris include non-operational satellites, rocket bodies, and fragments generated from explosions, collisions, or faulty payload assembly.

Loading next visibility...
Identifier
28389, 1981-043F
Orbit
LEO
Last TLE update
2 days ago
Origin
Manufacturer
Unknown
Mission
Spacecraft
Bus & Motor
Unknown
Mass
Unknown
Launch date (UTC)
1981-05-14 (44 years ago)
Launch vehicle
Unknown
Launch site
Plesetsk Missile And Space Complex (PKMTR)
Object type
Payload
Rocket body
Debris
Shape & HBR
Unknown
Radar Cross Section
Small (<0.1 m²)

Expand to show TLE details & history

TLE from 2 days ago
0 METEOR 2-7 DEB
1 28389U 81043F   25188.97982052  .00009090  00000-0  21157-2 0  9998
2 28389  81.2645 279.8408 0022167 317.6138  42.3344 14.54649693 77828
Epoch: 2025-07-07T23:30Z
TLE epoch observation values (Epoch: 2025-07-07T23:30:56.492Z)
Latitude
-0.00006°
Longitude
0.92402°
Altitude
701.861 km
Speed
7.511 km/s
True Right ascension
18h 39m 21s
True Declination
0° 00' 00"
Sunlit
Object was in full shadow at epoch
Visualization orbit readout
Latitude
64.71729°
Longitude
160.22675°
Altitude
736.441 km
Speed
7.485 km/s
Apparent Right ascension
17h 50m 57s
Apparent Declination
51° 25' 37"
Sunlit
Object is in daylight
Visualization observer readout
Local Sidereal Time
05:29:37
Azimuth
356.676° N
Elevation
1.462°
Doppler factor
1
Orbital elements
Apogee altitude
723.323 km
Perigee altitude
691.909 km
Semi-major axis
7,085.753 km
Eccentricity
0.00222
Inclination
81.2645°
RAAN
279.8408°
Arg. of periapsis
317.6138°
True anomaly
Unknown
Mean anomaly
42.3344°
Eccentric anomaly
Unknown
Mean motion
3.63885 °/min
Orbital period
98.93 mins
BSTAR
0.0021157
Loading maneuver chart data...
Loading SW <> Apogee altitude chart data...
Loading historical data...
Loading historical data...
Loading historical data...
Loading historical data...
Loading historical data...
Loading historical data...
Loading historical data...

METEOR 2-7 DEB Visibility forecast

Observer location: undefined°, undefined°

Span
Click to sort rows by Start time (UTC) header in descending order
Start Az.
Max El. time (UTC)
Max El. Az.
Max El.
End time (UTC)
End Az.
8 mins2025-07-09 17:21:30.711Z5.949° NNE2025-07-09 17:25:30.711Z84.821° E37.042°2025-07-09 17:29:30.711Z150.279° SSE
4 mins2025-07-09 19:03:30.711Z291.85° WNW2025-07-09 19:04:30.711Z277.762° WNW15.787°2025-07-09 19:07:30.711Z238.507° WSW
7 mins2025-07-10 06:07:30.711Z150.288° SSE2025-07-10 06:10:30.711Z91.159° ESE31.839°2025-07-10 06:14:30.711Z27.64° NE
5 mins2025-07-10 07:48:30.711Z257.694° W2025-07-10 07:50:30.711Z289.192° WNW19.611°2025-07-10 07:53:30.711Z332.18° NNW
5 mins2025-07-10 16:29:30.711Z43.305° NE2025-07-10 16:31:30.711Z72.85° E17.396°2025-07-10 16:34:30.711Z111.371° ESE
|